Iron Mountain, MI

5:58 AM CST on February 13, 2016 (GMT -0600)
Ford

Weather History for KIMT - November, 2010

Change the Weather History Date:

Tuesday, November 30, 2010

  Actual Average Record
Temperature  
Mean Temperature 34 °F -  
Max Temperature 42 °F 34 °F 57 °F (1951)
Min Temperature 24 °F 16 °F -10 °F (1976)
Degree Days  
Heating Degree Days 32    
Moisture  
Dew Point 35 °F    
Average Humidity 90    
Maximum Humidity 100    
Minimum Humidity 75    
Precipitation  
Precipitation 0.10 in - - ()
Sea Level Pressure  
Sea Level Pressure 29.46 in    
Wind  
Wind Speed 6 mph (SW)    
Max Wind Speed 13 mph    
Max Gust Speed 22 mph    
Visibility 8 miles    
Events Rain , Snow    
Averages and records for this station are not official NWS values.
T = Trace of Precipitation, MM = Missing Value Source: NWS Daily Summary

Daily Weather History Graph

Daily Weather History Graph

Search for Another Location

Airport or City:

Trip Planner

Search our weather history database for the weather conditions in past years. The results will help you decide how hot, cold, wet, or windy it might be!

Date:

Astronomy

Nov. 30, 2010 Rise Set
Actual Time 7:12 AM CST 4:09 PM CST
Civil Twilight 6:38 AM CST 4:43 PM CST
Nautical Twilight 6:01 AM CST 5:20 PM CST
Astronomical Twilight 5:25 AM CST 5:56 PM CST
Moon 1:12 AM CST (11/30) 12:53 PM CST (11/30)
Length of Visible Light 10h 05m
Length of Day
8h 57m
Waning Crescent, 29% of the Moon is Illuminated
Nov 30
Waning Crescent
Dec 5
New
Dec 13
First Quarter
Dec 21
Full
Dec 27
Last Quarter

Hourly Weather History & Observations

Time (CST) Temp. Windchill Dew Point Humidity Pressure Visibility Wind Dir Wind Speed Gust Speed Precip Events Conditions
12:54 AM 41.0 °F 37.1 °F 39.9 °F 96% 29.58 in 6.0 mi SE 5.8 mph - 0.04 in Rain Light Rain
1:54 AM 41.0 °F 38.0 °F 39.9 °F 96% 29.55 in 7.0 mi SE 4.6 mph - 0.02 in Rain Light Rain
2:54 AM 41.0 °F 38.0 °F 41.0 °F 100% 29.51 in 3.0 mi SSE 4.6 mph - 0.01 in   Overcast
3:54 AM 42.1 °F 37.1 °F 41.0 °F 96% 29.48 in 9.0 mi SSE 8.1 mph - N/A   Overcast
4:41 AM 42.8 °F 38.6 °F 42.8 °F 100% 29.44 in 1.8 mi SSE 6.9 mph - 0.01 in   Overcast
4:54 AM 42.1 °F 37.7 °F 41.0 °F 96% 29.47 in 1.8 mi SSE 6.9 mph - 0.01 in   Overcast
5:18 AM 42.8 °F 41.1 °F 41.0 °F 93% 29.42 in 2.5 mi SSE 3.5 mph - N/A   Overcast
6:54 AM 41.0 °F 37.1 °F 41.0 °F 100% 29.43 in 1.8 mi South 5.8 mph - N/A   Overcast
7:42 AM 41.0 °F 37.1 °F 41.0 °F 100% 29.38 in 3.0 mi South 5.8 mph - 0.01 in   Overcast
7:54 AM 41.0 °F 37.1 °F 41.0 °F 100% 29.42 in 8.0 mi South 5.8 mph - 0.01 in Rain Light Rain
8:17 AM 41.0 °F 39.0 °F 41.0 °F 100% 29.38 in 10.0 mi SSE 3.5 mph - 0.00 in   Overcast
8:24 AM 42.8 °F 41.1 °F 41.0 °F 93% 29.38 in 10.0 mi SSE 3.5 mph - 0.00 in   Overcast
8:54 AM 42.1 °F 40.2 °F 41.0 °F 96% 29.40 in 10.0 mi WSW 3.5 mph - 0.00 in   Overcast
9:05 AM 42.8 °F 40.1 °F 41.0 °F 93% 29.38 in 10.0 mi SSW 4.6 mph - N/A   Overcast
9:54 AM 42.1 °F 39.2 °F 39.9 °F 92% 29.42 in 10.0 mi South 4.6 mph - N/A   Overcast
10:24 AM 42.8 °F 40.1 °F 41.0 °F 93% 29.37 in 10.0 mi WSW 4.6 mph - N/A   Mostly Cloudy
10:44 AM 42.8 °F 38.6 °F 41.0 °F 93% 29.37 in 10.0 mi South 6.9 mph - N/A   Mostly Cloudy
10:54 AM 42.1 °F 38.4 °F 41.0 °F 96% 29.40 in 10.0 mi SSW 5.8 mph - N/A   Mostly Cloudy
11:54 AM 42.1 °F 38.4 °F 39.9 °F 92% 29.39 in 8.0 mi SW 5.8 mph - 0.01 in Rain Light Rain
12:18 PM 42.8 °F 40.1 °F 39.2 °F 87% 29.36 in 10.0 mi SSW 4.6 mph - 0.00 in Rain Light Rain
1:54 PM 41.0 °F 35.2 °F 37.9 °F 89% 29.40 in 10.0 mi West 9.2 mph - 0.00 in   Overcast
2:54 PM 37.9 °F 31.5 °F 34.0 °F 86% 29.44 in 10.0 mi WSW 9.2 mph - N/A   Overcast
3:03 PM 37.4 °F 30.8 °F 33.8 °F 87% 29.41 in 10.0 mi WSW 9.2 mph 19.6 mph N/A   Overcast
3:26 PM 37.4 °F 32.1 °F 33.8 °F 87% 29.42 in 10.0 mi WSW 6.9 mph - N/A   Overcast
3:54 PM 37.0 °F 31.0 °F 32.0 °F 82% 29.46 in 10.0 mi West 8.1 mph - N/A   Overcast
4:54 PM 36.0 °F 30.3 °F 32.0 °F 86% 29.48 in 10.0 mi WSW 6.9 mph - N/A   Overcast
5:34 PM 35.6 °F 30.7 °F 30.2 °F 81% 29.46 in 10.0 mi West 5.8 mph - N/A   Overcast
5:42 PM 35.6 °F 30.7 °F 30.2 °F 81% 29.46 in 10.0 mi West 5.8 mph - N/A   Overcast
5:54 PM 35.1 °F 27.4 °F 30.0 °F 82% 29.50 in 10.0 mi West 10.4 mph - N/A   Overcast
6:07 PM 33.8 °F 27.0 °F 30.2 °F 87% 29.47 in 10.0 mi West 8.1 mph - N/A   Overcast
6:54 PM 32.0 °F 23.0 °F 28.0 °F 85% 29.51 in 10.0 mi WSW 11.5 mph 19.6 mph 0.00 in Snow Light Snow
7:54 PM 30.0 °F 20.5 °F 24.1 °F 79% 29.54 in 10.0 mi West 11.5 mph 21.9 mph 0.00 in   Overcast
8:54 PM 28.0 °F 18.1 °F 21.9 °F 78% 29.55 in 10.0 mi West 11.5 mph - N/A   Overcast
9:54 PM 26.1 °F 17.6 °F 19.9 °F 78% 29.57 in 10.0 mi West 8.1 mph - N/A   Overcast
10:54 PM 25.0 °F 13.6 °F 18.0 °F 75% 29.59 in 10.0 mi West 12.7 mph - N/A   Overcast
11:54 PM 24.1 °F 13.7 °F 17.1 °F 75% 29.60 in 10.0 mi West 10.4 mph 18.4 mph N/A   Overcast